This demonstration page uses our WeatherBlox Daily Observations layout. Learn more.

Left ArrowRight Arrow

Hourly Observations for December 23, 2020

Temp ( °F °C ) Dew Point ( °F °C ) Humidity (%) Winds ( mph kmh ) Pressure ( in mb ) Visibility ( mi km ) Precip ( " mm )
12:53 am 00:53 Clear 26 -3.3 24 -4.4 92 92 Calm 30.23 1024 10 16 0.00 0.00
1:53 am 01:53 Clear 28 -2.2 25 -3.9 88 88 E 5 7 30.22 1023 10 16 0.00 0.00
2:53 am 02:53 Clear 29 -1.7 26 -3.3 89 89 E 5 7 30.21 1023 10 16 0.00 0.00
3:53 am 03:53 Clear 30 -1.1 26 -3.3 85 85 ESE 5 7 30.18 1022 10 16 0.00 0.00
4:53 am 04:53 Clear 29 -1.7 26 -3.3 89 89 Calm 30.15 1021 10 16 0.00 0.00
5:53 am 05:53 Clear 30 -1.1 26 -3.3 85 85 ESE 5 7 30.13 1020 10 16 0.00 0.00
6:53 am 06:53 Clear 33 0.6 27 -2.8 78 78 SE 5 7 30.14 1021 10 16 0.00 0.00
7:53 am 07:53 Clear 36 2.2 26 -3.3 67 67 ESE 3 6 30.12 1020 10 16 0.00 0.00
8:53 am 08:53 Sunny 37 2.8 27 -2.8 67 67 VRB 5 7 30.10 1019 10 16 0.00 0.00
9:53 am 09:53 Sunny 43 6.1 26 -3.3 51 51 VRB 7 11 30.09 1019 10 16 0.00 0.00
10:53 am 10:53 Sunny 49 9.4 25 -3.9 39 39 VRB 7 11 30.04 1017 10 16 0.00 0.00
11:53 am 11:53 Sunny 50 10 25 -3.9 38 38 S 10 17 29.99 1016 10 16 0.00 0.00
12:53 pm 12:53 Sunny 56 13.3 28 -2.2 34 34 VRB 7 11 29.94 1014 10 16 0.00 0.00
1:53 pm 13:53 Mostly Cloudy 56 13.3 27 -2.8 33 33 S 9 15 29.90 1013 10 16 0.00 0.00
2:53 pm 14:53 Cloudy 56 13.3 27 -2.8 33 33 S 7 11 29.88 1012 10 16 0.00 0.00
3:53 pm 15:53 Cloudy 58 14.4 28 -2.2 32 32 SSW 10 17 29.87 1012 10 16 0.00 0.00
4:53 pm 16:53 Cloudy 57 13.9 27 -2.8 32 32 VRB 6 9 29.85 1011 10 16 0.00 0.00
5:53 pm 17:53 Cloudy 55 12.8 28 -2.2 35 35 VRB 6 9 29.83 1010 10 16 0.00 0.00
6:53 pm 18:53 Cloudy with Light Rain 54 12.2 31 -0.6 42 42 VRB 6 9 29.81 1010 10 16 0.01 0.25
7:53 pm 19:53 Cloudy 55 12.8 28 -2.2 35 35 S 9 15 29.78 1009 10 16 0.00 0.00
8:53 pm 20:53 Cloudy 54 12.2 33 0.6 45 45 S 9 15 29.78 1008 10 16 0.01 0.25
9:53 pm 21:53 Cloudy with Light Rain 53 11.7 36 2.2 52 52 VRB 6 9 29.75 1007 10 16 0.00 0.00
10:53 pm 22:53 Cloudy 52 11.1 36 2.2 55 55 SSE 9 15 29.72 1006 10 16 0.00 0.00
11:53 pm 23:53 Cloudy with Light Rain 51 10.6 40 4.4 66 66 SSW 14 22 29.72 1006 7 11 0.02 0.51

Powered by AerisWeather